Theta_e
337 340 343 346 342 343 345 347 346 346 346 343 343 343 344 344 344 342 339 339 340 338 339 341 341 341 341 342 341 341 341 341 341 342 345 346 346 346 346 346 346 346 347 346 346 346 346 347 346 344 344 344 345 344 345 345 345 346 345 346 346 346 345 345 345 344 344 344 344 345 345 346 345 345 345 344 344 342 340 339 338 335 335 336 339
338 341 344 346 344 343 345 347 346 347 345 343 344 344 342 340 339 342 342 340 340 340 340 340 339 340 340 340 341 340 340 340 340 341 341 344 344 344 345 346 345 345 345 345 345 345 346 346 347 347 346 347 346 346 345 346 346 345 344 344 344 344 344 344 343 342 342 343 343 343 343 344 344 344 344 345 344 342 340 339 339 337 336 337 338
341 341 343 346 346 346 347 347 347 347 345 345 344 344 342 342 342 342 343 343 342 342 341 338 340 341 340 339 339 340 340 340 339 341 341 341 342 343 344 344 344 344 344 345 345 345 346 346 347 347 347 346 346 346 346 345 345 344 344 343 343 343 343 343 342 342 342 342 342 342 342 343 342 342 343 343 343 341 339 339 338 337 336 337 336
340 342 345 346 344 346 347 347 346 346 346 345 344 343 343 342 342 341 341 342 342 341 341 341 341 340 340 340 341 341 341 341 341 340 340 340 341 341 342 342 343 344 343 344 345 344 344 346 346 346 345 345 345 345 345 344 343 343 343 342 342 342 342 341 340 339 339 338 338 338 339 340 340 341 342 341 340 339 337 336 336 337 337 337 336
340 343 344 344 345 344 347 347 347 346 345 345 344 343 342 343 342 341 343 343 342 340 340 339 339 340 341 340 341 341 341 341 341 340 339 339 340 342 342 342 342 343 343 343 344 343 343 345 346 346 345 345 344 344 343 343 343 342 342 342 342 341 340 339 339 338 338 337 337 336 336 338 339 340 341 341 338 336 335 334 334 334 335 334 333
340 341 341 342 344 346 347 346 347 347 346 344 343 342 341 341 341 339 339 344 343 342 341 340 340 340 339 340 340 340 340 340 340 341 341 341 341 342 343 343 343 343 343 344 344 344 344 344 344 345 345 344 343 343 343 342 342 342 342 342 342 341 340 339 338 337 336 335 335 334 334 336 336 336 339 339 337 335 333 334 333 333 333 333 332
340 341 340 341 343 345 345 346 347 347 346 344 344 343 342 342 341 340 340 342 343 343 343 342 340 340 340 339 340 340 340 341 341 342 341 340 341 342 342 341 341 343 344 344 343 344 344 344 344 344 344 343 343 342 342 341 341 341 341 341 340 339 338 338 337 336 335 335 334 333 332 334 335 335 336 335 333 332 332 333 333 333 333 333 332
340 340 340 341 343 343 344 347 347 347 346 345 345 344 343 343 341 340 339 339 343 343 343 344 343 341 341 341 341 340 341 343 343 342 341 340 341 341 340 342 343 343 343 343 343 343 343 343 343 343 343 343 342 342 341 341 341 341 340 339 338 338 337 336 334 334 333 334 336 335 333 332 332 333 336 333 332 332 332 332 332 332 331 329 329
338 339 340 341 343 341 344 346 347 347 347 346 345 345 343 341 340 340 339 338 338 342 344 343 344 344 344 343 343 343 342 341 342 342 342 342 342 342 342 342 342 342 342 343 343 343 343 343 343 343 343 342 342 341 341 341 340 340 339 338 337 336 336 334 333 331 331 332 333 335 335 333 333 332 334 335 332 331 331 331 331 331 329 328 326
338 340 340 340 343 340 342 346 346 347 347 347 346 345 343 342 341 340 339 338 338 342 342 341 344 344 345 344 343 344 344 343 343 343 342 341 340 341 342 342 342 343 343 343 343 343 342 342 342 342 342 341 342 341 341 341 340 339 338 337 336 335 334 333 330 330 330 330 331 333 335 335 332 332 335 335 333 331 333 332 332 331 329 327 330
338 340 340 340 342 340 344 346 346 346 346 347 346 345 344 342 341 341 341 340 338 340 342 341 341 343 344 344 343 342 341 341 341 341 342 341 342 343 342 342 342 342 342 342 342 343 342 343 342 342 341 341 341 340 339 339 339 338 337 336 335 334 333 330 329 329 330 330 330 331 332 334 330 331 333 334 332 329 331 330 330 328 328 329 328
337 339 340 342 343 340 343 345 346 346 346 346 346 345 343 342 342 342 340 339 337 340 342 341 341 343 343 343 343 341 340 340 340 340 341 341 341 341 341 341 340 340 340 341 341 341 341 341 342 341 340 340 340 339 338 338 337 337 336 334 334 332 330 328 328 329 330 330 330 331 332 331 330 330 332 332 332 331 329 329 329 329 329 328 331
337 338 340 343 343 339 341 344 344 346 346 345 346 345 343 343 343 342 340 339 339 338 338 338 339 342 342 342 342 342 341 341 341 340 339 339 339 340 340 340 340 341 341 340 341 341 341 340 341 340 340 340 339 339 337 337 336 335 334 333 332 330 328 327 328 328 329 330 329 331 332 332 331 333 333 332 332 331 330 330 329 329 328 328 328
336 337 339 340 342 342 339 341 342 344 346 346 346 345 344 344 344 342 340 339 339 338 337 338 340 341 341 341 340 340 339 339 338 339 340 339 339 339 339 340 340 340 340 340 339 340 340 340 340 339 340 339 338 337 336 335 334 334 333 332 330 328 325 325 326 328 328 329 330 330 331 331 330 331 332 332 332 332 331 330 329 328 327 326 326
334 335 338 340 342 343 340 337 339 341 343 345 345 345 345 344 343 342 340 339 339 338 338 341 341 341 340 339 339 340 339 340 339 340 340 340 340 339 339 339 339 339 339 339 339 339 339 339 339 339 339 338 337 336 335 335 334 333 332 331 329 326 324 325 326 327 328 329 329 330 332 330 331 331 331 331 330 330 330 329 328 327 326 327 327
336 335 338 339 341 341 342 340 336 338 339 342 342 343 344 344 343 341 340 339 339 338 337 340 340 340 340 340 340 340 340 339 339 339 339 339 339 339 338 338 339 339 338 338 338 338 338 338 339 338 338 338 337 335 334 334 334 332 331 329 328 325 323 324 327 327 328 329 329 330 331 330 330 330 329 329 330 330 329 329 328 326 325 325 326
335 336 336 338 340 339 340 340 336 333 335 336 338 340 342 343 343 341 340 339 337 337 336 340 342 341 340 340 339 339 339 340 340 339 339 339 338 338 338 339 339 338 338 338 337 337 337 337 337 337 337 337 336 335 334 334 333 331 329 328 327 326 322 323 326 327 327 328 328 329 332 330 329 330 330 330 330 328 328 329 328 326 325 325 329
335 335 334 337 338 340 339 337 336 338 340 336 334 337 339 341 341 340 339 339 338 339 340 340 341 340 339 339 339 340 339 339 338 338 338 337 338 338 338 338 337 337 337 337 337 337 336 336 336 336 336 336 336 335 334 332 331 329 328 327 325 323 321 321 326 326 327 327 328 330 330 334 329 329 329 329 328 329 329 328 328 326 325 326 327
335 334 334 336 337 338 338 337 335 335 336 338 341 340 335 336 337 337 337 337 338 336 336 337 336 336 336 335 335 335 334 334 334 334 336 334 333 330 333 337 336 336 336 336 337 336 335 334 334 334 335 335 334 333 332 331 329 328 326 324 322 320 319 323 326 326 327 328 328 329 331 332 329 328 329 329 329 328 328 327 326 326 325 326 326
333 333 334 335 337 336 337 337 335 334 334 335 336 339 333 332 334 335 335 335 334 333 332 332 329 328 328 329 329 332 330 332 327 332 329 331 330 331 331 336 336 336 336 336 336 336 334 333 332 332 332 331 331 331 330 329 328 326 325 323 319 318 326 325 326 326 326 327 328 329 331 331 329 329 329 328 328 329 327 326 326 326 325 325 324
332 332 333 334 335 336 336 337 335 334 333 333 333 335 336 331 331 330 330 330 331 330 328 324 323 322 324 323 325 333 333 333 334 334 326 333 322 325 330 335 336 335 335 335 335 335 334 333 333 332 330 327 325 323 323 326 326 324 323 319 317 325 325 325 325 325 326 326 327 329 331 330 328 329 328 328 327 326 326 326 325 325 324 324 325
330 331 333 334 334 335 334 336 335 334 334 333 333 334 334 334 335 334 335 332 328 325 328 331 328 330 322 327 331 330 331 331 332 329 333 332 330 323 326 331 334 334 334 334 334 334 334 333 332 331 328 325 320 325 323 320 320 321 318 316 324 325 324 324 325 325 325 326 326 326 330 329 327 329 328 328 328 326 325 325 324 324 324 323 324
328 330 332 332 333 333 334 336 335 336 335 334 334 334 334 334 333 332 332 328 330 329 330 329 329 328 327 329 328 328 327 327 328 327 326 319 324 322 325 328 330 329 330 330 331 332 332 330 329 326 323 318 322 322 323 325 325 317 316 323 324 324 324 324 325 325 325 324 325 323 328 330 327 328 330 328 328 325 325 325 324 324 323 323 323
328 330 331 332 333 332 333 334 333 336 336 335 334 334 334 333 332 331 330 329 329 328 327 326 327 327 325 326 325 325 325 326 325 323 324 326 324 320 319 321 322 322 321 324 322 323 325 324 324 320 317 318 320 320 322 324 325 325 326 325 325 323 324 323 324 324 324 322 324 320 326 328 328 328 330 332 329 326 325 325 325 323 324 323 322
329 331 332 332 333 332 332 332 333 335 335 335 334 333 333 332 331 329 328 329 328 327 326 326 326 325 324 324 324 324 325 326 326 326 327 326 327 326 326 325 324 323 320 321 318 318 318 321 320 319 320 320 321 319 320 325 321 323 326 324 324 324 324 323 323 323 324 324 324 319 323 327 329 329 330 331 330 326 326 327 326 325 325 326 322
331 329 330 331 332 332 332 332 332 332 333 334 333 333 333 331 330 329 328 327 327 326 326 325 325 324 324 323 322 323 324 325 324 324 324 325 325 324 323 323 323 322 321 320 317 317 319 319 321 322 318 319 318 318 317 318 321 323 323 322 322 324 324 324 323 323 323 323 324 318 321 324 328 329 329 330 331 330 330 330 329 327 326 327 325
330 330 331 331 332 333 332 332 331 331 332 333 333 333 332 332 331 329 328 326 326 326 325 325 325 324 324 322 324 324 324 324 323 323 322 323 324 323 322 321 322 321 319 319 316 313 315 318 321 319 315 317 319 318 319 317 316 321 321 322 322 323 323 324 323 323 323 322 320 316 319 323 326 328 328 329 330 331 331 330 329 329 329 331 331
331 330 331 332 332 332 332 331 331 331 331 332 331 332 332 331 331 328 328 327 325 325 326 326 323 323 324 324 324 324 324 323 323 323 323 321 323 322 321 321 321 320 318 317 319 313 315 314 317 318 320 318 320 319 320 319 318 317 322 320 321 322 322 322 322 323 322 323 322 319 317 320 323 326 328 329 329 330 330 330 330 331 331 331 331
330 330 331 331 332 332 333 332 331 330 331 331 330 331 331 331 331 330 329 325 326 326 327 325 324 324 324 324 323 323 323 322 322 323 322 322 322 321 320 321 319 318 318 318 318 318 317 317 318 319 316 320 320 322 319 321 319 316 318 322 321 320 321 322 322 323 323 323 323 321 315 317 321 324 328 329 329 330 329 329 330 330 331 331 331
331 331 331 331 332 333 333 332 331 330 331 331 330 330 329 329 329 329 329 326 327 327 326 325 325 324 323 324 324 325 323 322 322 322 321 322 322 320 319 321 320 319 317 320 316 317 319 316 316 317 318 319 322 320 319 322 322 320 318 320 321 321 320 321 321 321 322 322 322 322 314 315 318 322 325 327 328 329 330 330 330 330 330 331 332
331 330 331 331 331 332 332 332 332 331 331 330 330 329 329 329 329 329 329 328 328 327 325 325 325 324 325 324 324 325 324 323 322 321 321 322 321 320 319 320 319 319 318 320 316 318 317 320 321 321 322 321 321 317 318 321 321 321 317 316 321 319 321 320 319 319 320 322 321 320 320 313 315 318 322 325 327 328 329 330 330 330 331 332 332
330 330 331 331 330 331 332 333 332 332 331 330 330 330 329 329 329 329 328 328 328 327 326 326 323 325 325 324 324 324 324 324 323 321 321 321 320 319 319 318 320 319 317 319 318 316 319 319 317 316 316 317 319 318 317 319 321 320 317 317 317 318 319 319 319 319 319 320 320 320 320 320 314 315 317 320 323 325 327 328 329 330 331 330 331
331 331 331 330 329 329 330 332 333 332 331 331 331 331 330 330 329 328 328 328 327 327 326 325 325 325 324 324 324 324 324 325 323 323 320 321 320 319 318 317 319 319 317 317 317 317 317 318 318 312 315 318 319 320 316 316 318 320 316 318 316 317 317 316 317 317 319 319 320 319 320 320 320 314 314 315 318 321 324 326 327 329 330 330 330
330 331 332 330 330 329 329 330 332 332 331 331 332 331 331 330 330 330 329 328 327 326 326 326 325 325 324 324 324 324 324 324 324 323 322 322 320 319 320 318 318 318 316 315 318 319 321 321 321 319 317 319 320 319 318 320 319 316 316 317 315 317 316 317 318 318 318 318 318 318 318 319 318 319 319 314 314 316 320 323 325 326 327 327 328
330 330 330 330 330 329 329 329 329 331 330 330 331 331 332 331 331 330 330 329 327 326 326 326 325 326 325 324 324 324 324 324 324 324 322 322 321 320 319 321 320 319 319 318 320 319 320 322 319 321 319 318 317 317 317 318 317 318 318 316 318 318 316 316 316 316 317 317 316 317 317 317 317 318 318 318 313 313 315 319 322 324 325 326 326
329 329 330 330 329 329 329 329 329 329 330 329 330 331 332 332 332 327 330 329 328 326 326 326 326 326 325 325 324 324 323 324 323 324 322 321 322 321 322 321 319 318 319 318 318 320 320 319 317 319 321 320 316 319 315 318 317 318 318 316 316 315 316 316 316 316 317 315 316 316 317 316 316 317 313 317 317 315 313 315 318 320 321 322 323
328 329 328 328 328 329 327 329 329 329 329 330 330 330 332 331 331 331 331 330 328 327 327 326 326 326 325 325 325 324 323 323 323 322 323 321 321 322 322 320 318 319 318 317 318 320 319 319 317 314 318 321 318 319 318 317 318 318 317 317 317 317 317 319 318 317 316 316 316 316 316 316 316 309 316 316 316 316 314 312 314 315 315 316 319
326 327 328 328 328 328 328 328 330 331 330 330 329 330 331 332 332 332 330 330 329 329 328 327 326 326 326 325 325 324 323 323 322 322 323 322 321 321 321 318 317 317 318 317 318 317 318 318 318 315 315 317 318 318 319 319 317 316 316 317 318 318 318 318 318 314 315 315 316 316 315 314 315 315 315 315 315 315 315 313 311 312 311 312 315
325 326 327 327 327 328 327 327 328 330 331 331 331 331 332 332 333 332 331 330 330 330 329 327 326 326 326 326 325 325 323 324 323 322 322 321 320 321 320 317 317 317 317 316 317 315 315 316 318 319 316 317 318 317 317 319 317 316 315 316 317 317 318 317 316 315 314 314 313 312 313 314 313 314 313 313 313 314 313 314 314 314 314 310 312
325 325 324 326 326 327 327 327 327 329 330 331 331 330 331 329 329 330 330 328 330 328 329 328 327 326 326 326 326 325 324 324 323 322 322 322 321 320 320 318 318 319 319 318 317 316 316 317 316 318 318 315 314 316 316 316 316 315 315 316 316 316 317 316 315 313 313 313 313 312 313 313 312 312 311 312 312 312 312 312 310 312 312 311 310
323 323 324 324 325 326 325 325 327 328 328 328 329 329 328 328 329 328 328 329 328 329 328 328 328 327 327 327 326 326 325 324 323 323 323 321 322 322 321 319 319 319 320 320 321 320 319 319 318 318 319 317 317 316 316 315 314 316 316 314 316 318 315 313 312 312 314 313 312 311 311 311 312 311 310 310 311 311 311 311 311 311 311 311 311
320 322 323 324 325 325 325 326 327 326 327 328 329 329 330 329 328 328 329 329 329 327 327 328 328 328 327 327 327 327 327 325 324 324 324 323 323 322 321 320 319 319 319 321 321 318 320 319 318 317 316 318 317 316 315 315 315 315 313 313 315 315 314 311 311 313 312 312 310 310 310 310 311 310 309 310 311 310 310 310 310 310 311 311 311
322 322 323 323 324 324 325 325 326 326 326 327 328 328 330 331 331 330 330 329 331 331 331 330 329 329 328 328 329 328 327 327 326 325 324 324 323 323 322 322 320 319 319 319 319 319 320 319 318 318 315 311 313 314 315 317 316 312 313 311 308 309 314 314 308 310 317 315 309 310 308 309 309 309 308 309 311 311 310 310 310 310 310 310 310
320 321 322 322 323 323 325 325 325 326 326 326 325 329 330 331 332 331 332 331 330 331 331 331 330 329 328 328 328 329 328 328 327 326 325 326 325 324 323 322 321 320 320 320 320 318 317 318 318 317 316 312 312 315 313 314 316 317 311 308 307 306 306 311 310 316 313 310 310 311 307 309 310 310 309 312 311 310 310 310 309 309 309 309 309
319 320 321 322 322 323 324 324 325 325 326 325 325 327 327 326 328 326 325 327 324 327 328 328 329 328 328 327 328 328 329 328 328 327 325 326 326 325 324 323 322 320 321 321 319 319 319 318 319 318 316 316 314 312 310 311 314 319 317 309 308 306 307 309 311 312 312 315 315 309 309 310 311 310 310 310 309 309 309 309 309 309 309 309 308
317 319 321 322 323 323 323 324 325 325 325 326 326 325 325 326 324 324 321 322 323 323 323 324 326 326 326 329 328 328 328 328 328 327 326 325 326 326 326 325 323 321 320 322 322 321 319 318 318 319 317 318 318 316 313 310 312 315 317 316 314 312 310 310 311 308 314 312 311 308 309 309 307 309 310 310 310 310 309 308 309 309 308 308 308
315 318 320 321 322 323 323 323 324 324 325 325 325 323 325 325 325 325 325 324 323 325 326 328 328 329 329 328 328 328 328 328 328 328 327 326 326 326 325 325 323 323 320 321 321 321 320 319 319 317 318 317 317 316 315 315 311 312 313 313 310 309 313 312 308 308 306 310 311 311 312 309 308 310 310 310 309 310 309 308 309 309 309 308 308
311 315 318 320 320 321 322 323 323 322 324 325 324 324 324 325 325 325 325 325 325 326 327 327 329 328 328 327 327 327 327 328 328 328 328 326 325 325 325 324 324 323 320 321 322 322 321 318 316 318 318 316 315 316 317 316 314 313 310 310 310 310 310 311 311 309 306 303 307 312 312 310 312 311 310 309 309 309 308 308 308 309 308 308 307
308 312 315 318 320 321 321 322 323 323 323 324 323 323 323 324 324 325 324 324 326 326 325 325 326 327 327 327 326 326 326 327 328 328 328 327 324 326 326 325 324 324 319 323 323 321 319 318 315 315 316 315 314 316 317 315 314 315 309 309 309 308 306 306 306 307 304 302 305 306 307 310 310 311 309 309 309 309 308 308 308 307 307 307 307
304 309 313 315 317 319 320 320 321 322 323 323 323 323 323 322 324 324 323 324 323 322 322 321 323 325 327 326 326 326 326 326 327 328 328 328 326 325 325 325 324 324 318 320 319 318 318 319 318 316 317 316 315 316 315 315 314 313 313 310 308 304 304 304 304 303 303 305 302 302 304 303 302 306 308 307 307 307 308 308 308 308 308 307 306
302 307 310 312 315 317 319 319 320 322 322 322 322 322 323 323 323 323 323 323 322 322 320 320 321 322 325 326 326 326 326 326 326 326 327 327 327 326 325 325 325 322 320 321 320 320 319 319 319 317 316 315 313 313 312 313 312 311 311 311 311 309 307 304 303 302 305 302 300 301 303 304 303 302 305 306 305 306 307 308 307 307 307 305 304
Wind_Speed
5 4 3 4 6 6 9 10 11 11 10 12 12 13 14 14 14 13 12 12 14 13 13 13 13 13 14 14 14 14 14 13 12 14 15 16 17 17 17 17 17 17 18 18 18 18 19 19 20 20 19 20 20 20 20 21 20 20 21 20 21 21 21 21 20 19 20 20 20 19 19 19 19 19 19 19 19 19 15 16 13 13 12 14 17
9 4 2 4 6 7 10 11 12 11 11 13 12 13 13 12 11 13 13 12 12 13 13 13 13 13 14 14 13 14 14 14 14 13 14 15 15 16 17 17 17 18 18 17 18 19 19 19 19 19 19 19 20 20 20 20 21 21 21 21 21 21 21 21 20 20 19 19 19 19 20 20 19 19 19 20 20 19 15 16 16 11 10 16 17
7 4 3 5 6 5 10 11 12 12 12 13 13 13 13 12 12 12 11 12 14 12 13 12 13 13 13 14 14 14 14 15 14 14 14 13 15 16 16 17 17 17 17 18 18 18 18 19 18 19 19 19 19 19 20 20 20 20 21 21 21 20 19 19 19 18 18 18 16 14 16 19 19 19 19 20 20 19 16 18 17 14 12 17 16
7 4 3 5 5 4 12 13 13 12 12 13 12 11 11 12 12 10 10 12 12 12 12 13 13 13 13 13 14 14 14 14 15 14 14 15 15 15 15 16 16 16 17 18 18 18 18 18 19 19 19 19 20 20 20 19 20 20 20 21 21 21 20 19 19 18 17 16 15 11 10 11 14 18 19 19 18 19 15 16 17 18 18 17 18
8 5 3 4 4 6 12 12 13 12 12 13 12 10 11 13 12 10 11 10 11 11 13 12 13 13 13 13 14 14 14 14 15 15 14 15 15 16 16 16 16 17 17 18 18 18 18 18 19 19 19 19 19 19 19 19 19 19 20 20 20 20 20 18 18 17 15 14 12 10 11 12 11 18 18 19 18 15 15 15 15 16 16 17 16
8 7 3 3 4 4 10 12 13 12 12 13 12 12 12 12 12 10 10 12 12 12 12 13 12 12 13 13 13 14 14 14 15 15 14 14 15 16 16 16 16 16 17 18 18 18 18 18 18 19 19 19 19 18 18 19 19 19 19 20 19 18 18 17 16 14 13 11 9 9 10 10 10 10 18 18 17 14 15 16 16 15 16 15 16
9 3 3 3 3 4 9 12 14 13 12 14 13 12 12 11 11 9 10 11 11 12 11 12 12 12 12 13 15 14 14 15 15 15 15 14 16 16 15 15 16 17 18 18 18 17 18 18 18 18 18 18 18 18 18 18 18 18 19 18 18 17 16 15 14 13 10 7 8 8 8 10 10 8 17 16 15 15 15 15 15 15 16 16 16
6 2 3 4 4 4 8 12 13 13 12 13 13 12 12 12 10 9 9 10 11 10 11 10 10 12 13 13 13 14 14 14 15 15 16 15 15 15 15 16 16 17 17 17 18 18 17 18 17 18 18 17 18 17 17 18 18 18 17 17 17 16 15 14 14 12 11 8 7 8 8 9 10 9 15 16 16 16 15 15 15 16 16 15 11
6 3 3 4 4 4 8 10 13 14 13 12 14 12 13 12 11 10 10 8 9 11 11 11 10 10 13 14 13 14 13 14 14 15 14 14 14 15 15 15 16 16 17 17 17 17 17 17 17 17 18 17 17 17 17 18 18 17 17 16 16 16 14 14 12 10 7 6 7 7 9 10 10 10 14 15 15 16 14 12 13 16 15 11 9
7 3 3 3 3 3 9 11 12 14 13 11 14 14 13 12 11 11 10 8 8 10 10 10 13 11 11 14 15 15 15 14 14 14 14 14 15 15 16 16 16 16 16 17 17 17 17 17 17 17 17 17 17 17 17 16 16 16 16 16 15 15 14 13 10 8 6 7 8 7 8 8 9 9 13 14 16 16 14 12 11 11 8 8 17
9 4 3 3 3 4 6 10 10 12 13 12 14 15 13 12 12 11 10 8 6 10 11 10 11 12 13 14 14 14 13 13 13 13 13 13 13 15 15 15 16 16 15 16 16 16 16 16 17 17 17 17 16 16 15 15 15 15 15 15 15 14 13 11 7 6 7 7 8 7 8 7 9 9 13 15 15 14 10 10 11 10 10 16 16
8 5 3 3 3 4 6 9 11 11 11 13 12 13 14 12 11 12 11 8 7 10 10 9 9 12 12 12 13 13 12 12 12 13 13 13 13 13 14 15 14 15 15 15 15 16 16 16 16 16 16 15 15 15 15 14 14 14 14 14 14 13 12 10 6 6 6 7 8 6 7 9 10 11 14 14 14 14 14 15 15 15 15 15 16
9 7 5 4 3 4 6 8 9 10 11 11 13 12 13 13 12 12 11 10 8 8 9 8 9 11 11 11 13 13 12 12 12 11 11 12 13 13 13 14 14 14 14 14 14 15 15 15 15 15 15 14 14 14 14 13 13 13 13 13 12 11 10 9 5 6 6 7 6 6 6 7 9 13 13 13 14 14 14 15 14 14 14 15 15
10 9 8 6 2 3 6 7 8 7 11 12 12 11 11 14 12 13 12 11 9 8 8 8 8 11 10 12 12 12 12 11 11 12 12 12 12 12 13 13 13 14 14 14 14 13 14 15 14 14 13 13 13 13 13 12 12 12 12 11 11 10 8 6 6 5 6 6 6 6 6 7 9 13 13 13 13 13 14 14 14 14 12 12 13
11 11 8 7 3 3 5 6 6 6 9 11 10 10 11 14 13 13 12 11 10 8 8 9 9 7 8 10 11 12 11 11 11 11 11 11 11 11 11 12 13 13 13 14 13 13 13 13 13 13 12 12 12 12 12 12 12 12 11 11 10 9 7 5 4 5 5 5 6 6 6 7 12 12 12 12 13 12 12 14 14 12 12 13 15
10 10 8 7 3 3 3 4 6 7 9 9 8 8 12 12 11 13 12 12 10 9 7 10 7 7 9 11 11 12 12 11 11 11 11 11 11 11 11 11 12 12 13 13 13 13 12 12 12 11 11 11 11 11 11 11 11 10 10 10 9 8 7 5 4 4 4 5 5 5 5 7 12 12 12 12 12 11 12 12 13 13 11 10 10
10 9 9 8 6 4 3 3 3 7 8 8 8 9 11 10 10 12 12 11 11 9 6 9 8 8 9 9 11 11 11 11 11 11 10 10 11 10 10 11 11 12 12 12 12 12 12 12 12 11 11 11 11 11 10 10 10 9 9 8 8 7 7 6 4 4 4 5 4 4 4 6 10 11 11 11 11 11 11 12 13 12 10 10 16
10 10 9 8 7 6 4 3 3 3 4 6 8 10 9 9 9 11 11 10 9 9 9 9 10 9 8 8 10 10 10 10 10 9 9 8 8 7 9 10 11 11 11 12 11 11 12 12 12 11 11 11 10 10 10 9 9 9 8 8 7 7 6 6 4 3 4 4 4 4 4 7 8 9 10 10 10 11 11 11 11 11 10 12 13
10 9 8 8 8 8 6 3 3 3 3 3 5 9 10 8 9 10 10 10 10 10 9 9 9 9 8 8 9 9 9 9 9 9 8 8 7 6 6 8 10 10 11 11 11 11 11 12 12 12 11 11 10 10 9 9 8 8 8 7 6 6 6 4 4 3 3 4 3 4 5 10 6 8 9 10 10 9 10 10 10 10 10 10 11
9 9 8 9 8 8 6 4 3 3 3 4 4 6 8 10 9 10 10 10 10 10 10 10 9 9 9 9 8 8 7 7 8 7 8 8 8 7 7 8 10 10 10 10 10 10 11 12 12 12 12 11 11 10 9 9 8 8 7 6 6 5 3 2 3 3 3 3 3 3 7 10 9 9 9 10 10 10 10 9 9 9 9 8 8
7 9 9 8 9 9 8 5 4 4 4 4 4 5 7 11 8 9 10 10 10 10 10 10 9 9 8 8 7 5 4 3 4 4 6 6 7 9 9 9 9 9 9 9 8 9 10 11 11 11 11 11 9 9 8 8 8 7 7 6 4 3 2 2 2 2 3 2 3 4 9 8 9 9 8 7 8 7 7 7 8 8 8 7 10
8 8 8 8 8 8 10 8 5 5 4 4 4 4 5 7 6 6 6 7 7 8 7 6 7 6 7 6 4 3 3 3 3 4 4 5 6 8 9 9 9 9 9 8 8 9 10 10 10 10 10 10 8 4 4 6 7 6 6 5 3 2 2 2 2 2 3 2 3 4 9 8 8 7 7 7 7 6 5 5 6 6 7 7 10
9 8 8 10 8 8 9 8 8 5 6 5 4 4 6 6 6 6 5 6 5 6 5 5 5 5 5 5 4 3 4 4 3 4 4 7 6 7 8 9 10 10 10 9 9 10 10 9 9 9 8 7 5 3 3 2 3 4 3 2 1 1 2 2 1 1 2 2 2 6 8 10 8 8 9 7 6 3 4 4 3 5 5 5 6
11 9 9 8 9 9 10 10 10 8 7 4 4 4 4 5 5 5 5 5 4 4 4 4 5 5 5 4 4 4 4 4 4 7 6 4 5 7 8 8 8 8 7 6 6 7 7 8 8 7 4 4 3 3 2 2 2 2 1 1 1 1 1 1 1 2 2 2 2 6 7 9 9 9 10 11 7 3 3 3 4 2 7 4 2
9 8 7 9 10 9 8 9 9 8 8 7 6 6 4 4 4 4 5 4 4 3 3 3 3 5 5 5 5 5 5 4 4 3 3 3 3 3 3 3 3 3 4 3 2 3 3 3 3 4 3 3 4 3 2 2 2 2 1 1 1 1 1 1 1 1 2 2 2 6 6 8 9 10 11 9 9 3 3 5 5 6 6 7 3
7 9 10 9 10 10 10 8 9 8 9 7 7 5 5 5 5 4 5 5 4 5 4 3 3 5 5 5 5 5 4 4 4 3 3 3 3 2 2 2 2 2 2 2 2 2 2 2 3 3 2 3 3 2 2 2 2 2 1 1 1 1 1 1 1 1 1 2 3 6 6 7 9 9 10 11 10 8 8 9 8 8 8 11 4
8 9 9 9 9 10 10 10 9 9 10 9 6 6 7 5 5 5 6 6 5 5 5 5 4 5 5 6 6 5 5 4 4 4 3 2 3 2 2 1 2 2 1 1 1 1 1 2 2 2 1 2 2 2 1 2 1 1 2 1 1 1 1 1 1 1 2 2 3 6 6 7 9 9 10 10 10 10 11 11 10 9 10 12 13
7 9 9 9 9 11 11 11 10 10 9 9 9 8 7 7 6 5 5 6 6 6 5 6 5 5 6 5 6 6 6 5 5 4 4 3 3 2 2 2 2 1 1 1 1 1 1 1 1 1 1 2 2 1 1 1 1 1 1 1 1 1 1 1 1 2 1 2 2 5 6 6 7 8 10 10 11 11 11 11 12 12 12 12 12
9 9 9 10 11 10 11 11 11 12 9 9 9 7 8 8 7 6 6 6 7 6 6 6 5 5 6 6 6 6 6 5 6 5 4 4 3 3 2 2 2 2 1 1 1 1 1 1 1 1 1 1 1 2 2 1 0 1 1 1 1 1 1 1 2 2 2 2 2 4 6 6 7 8 9 10 11 12 12 12 12 13 14 15 15
10 9 8 10 9 10 11 12 12 11 10 9 9 8 8 8 8 9 8 6 6 6 6 6 6 6 6 6 6 5 7 7 6 5 5 5 4 4 3 3 3 2 2 2 1 1 1 1 1 1 1 1 1 1 2 2 2 1 1 2 2 1 1 1 2 2 2 2 2 3 6 6 7 8 9 9 11 12 12 13 14 14 14 15 16
11 10 9 8 8 10 11 12 12 10 9 9 8 9 9 9 8 8 8 8 6 6 6 6 6 6 6 7 7 6 6 6 6 6 5 6 5 4 4 3 3 3 3 3 2 2 1 1 1 1 0 0 1 0 0 1 2 2 1 1 2 1 2 1 1 2 2 2 2 2 4 6 6 7 8 9 10 11 13 14 14 15 16 16 17
13 11 8 8 7 11 13 12 11 10 10 10 9 9 9 9 8 7 8 9 8 7 7 6 7 6 7 7 7 7 5 5 6 6 6 6 5 5 4 4 5 4 3 3 3 2 2 2 1 1 1 1 0 1 1 1 1 1 1 2 2 2 2 2 2 2 2 2 2 2 2 3 5 6 7 8 9 10 12 13 14 14 16 17 17
9 10 9 9 10 10 12 12 11 11 12 11 9 9 9 9 8 8 7 7 8 8 8 9 7 7 7 7 7 8 7 6 7 7 7 6 6 6 5 5 5 4 4 4 3 2 2 2 1 1 1 1 1 1 0 1 2 1 1 2 1 2 2 2 2 2 3 3 3 3 3 3 4 5 6 5 7 9 10 11 12 13 15 16 18
9 8 10 11 9 7 8 10 12 13 13 10 9 8 9 8 7 7 7 7 7 8 8 8 7 6 7 8 7 8 7 6 6 7 6 6 5 6 6 6 6 5 4 3 3 3 2 2 2 1 1 1 2 1 1 2 1 1 2 2 2 2 1 3 2 3 2 3 2 3 3 3 3 3 3 5 5 7 9 10 11 12 13 14 15
9 9 12 13 11 9 8 10 10 13 11 12 11 11 9 9 8 8 8 8 8 7 8 7 8 7 7 7 8 8 8 8 6 5 6 6 6 6 6 5 4 4 4 4 3 2 2 3 2 2 1 1 1 1 2 2 2 3 2 1 3 2 2 3 3 3 3 3 2 3 3 3 3 3 3 3 4 5 7 9 11 11 13 14 15
14 12 12 9 11 11 10 12 11 14 14 13 12 10 10 10 9 8 7 9 8 9 7 9 8 7 7 7 8 8 8 8 8 6 6 6 7 6 5 3 4 3 3 3 3 3 3 2 2 2 3 3 2 3 2 2 2 3 2 2 2 2 3 3 4 3 3 2 2 3 2 3 3 3 3 3 3 4 6 8 10 11 12 13 14
15 14 13 11 12 13 11 13 14 15 14 14 12 12 10 11 11 9 10 9 10 9 9 8 8 7 7 8 8 8 8 8 7 7 6 7 7 5 4 4 3 4 4 3 3 3 3 3 2 3 3 3 2 4 3 2 2 2 3 4 4 3 4 4 4 3 2 3 4 3 3 3 3 4 2 3 3 3 5 6 8 10 10 11 12
13 14 14 14 15 13 12 12 12 12 12 12 13 12 11 11 10 10 9 10 10 8 7 8 8 8 7 8 8 9 8 9 9 8 7 5 5 5 3 4 4 3 3 4 4 3 3 4 4 4 4 3 4 3 4 2 2 2 3 4 5 4 4 4 4 2 2 4 4 3 3 3 3 3 2 2 3 3 4 5 6 7 8 9 11
11 13 13 13 12 11 10 11 12 12 13 12 12 12 11 11 9 9 10 9 8 8 7 8 7 8 8 8 8 8 7 9 7 8 6 5 5 4 4 5 4 3 3 2 2 3 2 2 4 4 3 4 3 3 3 2 2 2 3 5 4 5 4 4 3 2 2 3 4 4 2 3 3 3 3 3 3 3 3 3 3 4 5 8 10
10 11 12 12 12 10 10 10 12 12 10 11 9 9 10 10 9 8 9 9 9 8 8 8 6 7 8 8 9 7 7 7 8 7 7 6 5 5 5 5 6 6 5 4 4 4 6 7 6 4 3 3 2 2 1 2 2 3 5 4 4 5 6 4 2 2 2 3 3 2 3 2 2 2 2 2 2 3 3 3 3 4 4 6 9
9 10 12 13 13 13 11 13 13 11 9 9 10 11 12 11 10 12 12 9 9 8 8 8 7 6 8 10 9 8 7 8 7 7 7 6 6 5 5 4 4 4 5 6 7 7 6 3 3 6 7 5 3 3 3 2 1 3 1 2 5 4 6 3 3 2 3 2 1 2 1 2 1 1 2 2 3 2 3 4 4 3 4 5 6
12 13 15 16 15 14 15 14 11 12 13 12 10 10 10 10 9 9 9 8 8 9 8 7 8 7 8 9 9 9 9 8 8 8 7 7 6 5 7 6 6 6 6 6 7 6 5 4 3 2 1 4 3 2 2 3 1 2 3 6 3 4 3 1 1 1 3 2 2 1 0 0 1 1 2 2 3 3 3 3 3 4 4 5 5
14 16 16 13 13 13 14 13 12 12 12 12 12 12 11 11 11 9 10 7 7 8 8 7 8 9 9 10 10 9 8 8 9 9 7 8 7 7 6 7 7 7 5 4 5 6 6 7 6 4 2 1 2 1 3 4 2 1 1 2 2 5 4 2 1 3 6 2 0 1 1 1 1 1 2 2 2 3 3 3 4 5 5 5 5
13 12 12 13 12 14 14 14 13 12 12 13 13 12 12 11 11 10 9 9 7 7 9 8 9 10 11 10 9 8 8 8 9 10 8 8 8 8 8 7 8 8 8 6 5 5 4 4 5 6 4 3 3 3 4 5 4 2 3 1 1 1 3 1 4 6 2 1 1 1 1 0 1 3 2 4 4 3 4 3 4 4 4 4 5
14 14 14 14 12 17 16 15 15 14 14 14 14 11 9 8 8 6 6 6 4 6 8 9 10 9 8 9 9 9 9 8 8 10 9 9 9 7 7 7 7 6 6 5 5 7 8 8 8 7 8 7 5 4 3 4 6 4 3 1 1 1 3 1 6 4 2 2 1 1 1 2 4 3 3 3 2 3 3 4 4 4 4 4 4
14 15 14 16 15 14 14 14 12 12 14 15 14 11 11 11 10 10 10 10 10 10 11 12 10 9 9 7 8 9 9 9 9 9 9 8 10 12 10 8 9 7 6 8 7 5 5 7 8 7 7 7 6 4 4 2 4 5 5 5 1 3 3 1 3 2 2 2 3 1 1 3 2 2 3 3 4 4 2 3 3 4 4 4 4
16 13 12 14 15 14 13 14 14 13 13 13 14 12 12 12 14 13 10 11 12 8 9 8 8 7 7 8 8 9 10 10 9 9 9 9 8 8 10 11 11 10 8 7 8 9 8 8 5 6 6 5 5 7 7 4 2 3 4 4 2 2 1 2 3 2 7 2 0 2 0 2 1 4 4 4 7 5 3 3 4 4 4 3 4
14 10 13 12 14 16 15 15 13 12 12 12 13 14 13 13 13 13 13 13 13 12 11 9 8 7 8 9 8 8 9 10 9 9 9 9 8 7 7 7 7 8 7 6 8 9 7 6 6 7 5 7 8 8 7 4 5 1 1 3 2 1 1 0 1 2 2 7 4 2 2 2 6 5 4 8 7 2 5 5 5 4 3 3 3
10 13 14 14 13 13 13 12 13 12 11 13 13 14 13 13 13 12 13 11 11 10 8 8 8 8 10 8 8 8 9 10 10 10 10 9 9 9 9 8 8 8 7 8 7 7 9 8 7 6 7 7 7 6 4 5 5 5 3 1 2 2 2 1 2 3 1 2 9 8 8 5 6 1 6 8 5 2 3 3 2 3 3 4 5
10 9 9 9 9 10 12 13 14 12 11 13 13 14 14 12 12 13 14 12 9 7 8 8 9 9 10 10 9 9 9 9 9 10 10 10 9 9 8 9 9 7 6 6 6 6 6 7 8 9 7 7 6 5 7 4 5 4 4 4 4 2 2 1 2 2 1 3 6 7 7 8 11 10 11 9 11 11 9 7 5 4 4 6 8
7 9 10 11 10 11 13 14 16 12 12 13 13 15 14 13 13 14 15 14 12 11 9 9 8 9 10 10 9 9 9 9 9 9 9 10 10 10 9 8 8 8 7 7 8 9 8 8 7 7 7 8 6 6 4 3 4 4 4 5 5 4 4 3 4 2 2 1 2 4 3 2 5 11 6 8 10 11 8 6 6 7 7 8 7
Wind_Direction
206 189 193 180 141 143 126 125 123 111 114 105 101 101 91 89 90 88 85 83 91 91 88 88 91 87 78 80 82 82 82 84 90 88 88 85 79 78 75 73 74 75 77 77 78 78 79 79 78 78 78 76 75 74 73 73 74 73 71 70 67 65 65 62 61 59 58 59 65 68 68 69 68 69 71 69 65 61 57 55 53 55 52 50 50
165 207 197 153 144 152 134 126 121 112 118 109 102 96 93 89 90 95 95 94 87 87 84 82 85 84 89 88 89 86 82 81 83 84 89 90 88 80 78 76 74 74 76 78 76 76 77 77 78 79 77 78 77 76 75 75 74 73 72 71 69 67 65 64 63 63 62 62 60 61 64 66 66 66 66 65 63 60 56 55 53 56 57 56 55
150 167 188 143 136 161 121 122 120 119 118 111 104 98 100 98 94 91 89 88 88 86 92 95 90 86 82 80 80 80 82 84 81 69 78 86 86 83 79 78 76 77 78 77 77 77 77 77 76 75 75 75 75 74 73 73 73 72 73 72 70 67 62 60 59 56 55 51 48 48 57 64 64 65 63 62 61 59 54 54 54 55 59 59 59
146 162 159 136 146 122 112 121 122 123 118 111 105 104 106 105 99 98 100 96 94 95 83 84 92 92 88 88 86 84 90 89 86 83 89 91 87 87 83 81 81 81 81 80 80 79 78 78 77 77 76 75 73 73 73 73 73 72 72 71 67 63 61 59 57 54 51 49 49 45 56 63 65 67 69 66 63 60 57 57 57 59 60 60 58
141 140 141 123 130 115 114 123 127 124 118 114 110 107 106 103 105 107 111 106 101 98 94 87 83 90 91 91 93 90 84 87 90 92 87 91 93 86 85 84 83 85 87 87 85 81 79 79 79 77 76 76 75 75 74 74 73 73 72 68 65 62 61 59 56 54 52 50 45 49 58 64 64 63 69 68 64 61 61 61 61 62 61 61 59
143 148 125 118 125 127 121 128 129 128 123 117 111 103 96 94 93 90 88 76 87 90 92 95 96 94 94 96 94 92 92 89 93 94 93 90 92 89 84 84 86 90 89 87 84 81 80 79 80 80 79 77 76 76 76 76 76 75 72 70 66 64 63 61 59 55 52 50 47 58 55 56 59 56 57 62 62 58 62 64 65 65 61 57 57
147 134 126 115 118 124 131 130 131 132 125 121 116 111 108 106 103 102 96 96 92 90 94 101 97 87 89 91 89 89 85 84 88 91 94 96 90 87 87 88 87 84 84 83 82 79 77 76 77 82 82 81 79 78 79 80 79 76 74 71 70 69 66 61 58 54 45 51 58 57 58 56 60 65 62 59 57 58 62 65 64 63 60 55 49
141 119 123 121 128 118 114 127 134 130 129 127 121 117 112 105 103 96 88 100 105 94 93 94 98 99 94 91 91 92 84 80 79 86 94 95 92 89 89 87 86 84 86 86 85 83 80 77 77 81 81 82 82 82 81 80 79 78 76 77 74 70 65 59 53 49 39 51 50 55 57 57 60 65 65 62 60 61 61 61 62 60 58 56 53
146 126 125 124 120 98 117 129 137 136 135 129 125 120 114 111 107 96 94 90 98 101 103 104 98 97 105 94 88 92 95 94 89 86 87 95 94 94 88 85 85 90 90 90 88 84 80 79 79 79 81 82 83 82 81 80 78 76 76 74 71 67 61 56 49 40 46 47 41 54 59 63 64 67 65 66 62 63 61 56 61 59 55 47 50
147 121 119 119 115 125 135 135 140 138 135 132 128 123 118 115 113 107 98 95 96 104 99 93 95 104 94 97 99 87 85 87 92 96 98 99 95 91 87 90 91 91 91 90 88 85 83 83 81 81 81 82 81 82 81 80 78 77 75 72 69 64 59 54 46 41 45 43 42 42 45 38 60 62 70 70 63 62 61 56 56 51 55 52 53
154 136 128 123 149 132 122 132 138 142 139 136 135 127 122 119 118 113 103 94 93 96 94 93 96 93 99 98 91 90 87 87 87 88 91 96 95 93 91 86 83 82 84 85 85 86 83 82 83 84 84 82 81 81 80 78 77 76 75 72 67 62 57 51 42 48 42 39 41 40 47 36 61 61 64 68 66 62 62 63 64 62 50 50 49
157 153 137 141 146 113 119 132 140 143 144 140 129 129 128 126 124 117 114 104 96 98 100 100 102 95 95 95 94 94 93 91 93 97 96 99 99 97 91 88 89 86 83 85 85 86 87 87 87 86 85 84 83 81 80 78 77 76 75 73 68 63 55 47 46 47 39 37 39 29 37 53 61 61 60 63 60 58 55 52 49 48 46 54 55
157 158 151 135 112 117 120 129 132 141 143 140 135 133 131 130 123 121 119 112 94 97 104 113 111 104 104 100 99 99 99 101 102 98 94 99 100 95 96 94 91 90 89 88 88 88 89 89 88 88 88 87 86 84 81 80 79 77 75 73 69 65 60 48 48 45 42 36 37 29 30 47 56 60 63 58 57 55 54 51 50 49 43 44 49
154 156 156 154 104 127 114 115 128 131 136 142 141 142 137 131 128 124 122 117 110 105 115 97 87 100 106 106 104 104 108 107 100 99 99 99 99 102 100 97 95 89 86 86 88 88 90 92 92 90 90 90 89 87 86 84 82 80 76 72 67 63 52 55 45 46 42 37 35 29 23 50 58 56 55 55 54 54 53 52 51 49 49 54 54
155 158 159 162 141 117 111 111 119 129 131 141 144 143 130 130 132 128 125 122 119 117 121 99 101 107 117 109 107 102 99 102 100 98 98 97 99 103 108 103 96 91 89 85 86 88 87 89 89 91 89 90 89 87 86 84 81 79 77 71 67 61 50 60 49 45 42 35 32 25 24 48 50 53 51 51 52 52 52 52 47 44 42 31 52
153 156 162 162 127 113 105 109 105 111 116 125 140 142 129 128 134 130 128 125 124 127 127 110 100 100 111 108 108 107 105 102 102 102 102 103 101 102 106 104 101 98 92 89 87 87 91 91 91 90 91 91 91 89 85 82 81 77 74 71 63 62 55 58 58 44 45 37 30 25 19 46 52 51 51 51 50 45 46 49 50 46 49 42 42
151 157 161 160 158 139 130 90 94 117 119 126 134 127 132 133 135 131 130 126 127 132 122 105 98 103 116 110 106 106 105 102 92 83 81 90 95 96 100 103 104 103 96 91 90 88 86 84 85 86 88 91 91 90 87 82 80 79 74 69 66 57 59 56 58 47 41 34 25 18 21 43 45 49 48 48 49 47 45 40 51 43 43 33 18
157 158 165 165 164 158 132 120 107 104 117 122 127 127 131 134 133 128 127 127 123 109 105 104 101 100 93 96 102 101 100 96 92 90 84 77 76 86 101 108 109 107 104 96 91 85 83 82 80 82 86 87 88 88 84 82 77 74 72 67 63 61 62 57 57 48 39 28 27 17 18 21 45 44 47 48 46 45 42 41 45 41 31 39 39
156 164 168 170 164 165 161 131 120 131 124 118 133 134 131 122 122 124 123 121 115 115 111 109 108 102 96 94 95 95 94 94 94 93 88 82 78 69 87 107 111 108 108 100 90 84 84 81 78 76 77 79 80 77 75 73 71 68 66 62 58 62 55 54 55 44 34 36 27 23 17 352 58 54 45 39 43 42 40 33 30 41 28 32 37
164 166 171 175 165 165 167 152 150 148 145 136 131 137 134 122 122 123 125 124 122 119 117 115 111 105 102 101 97 96 93 89 89 87 86 81 80 76 73 100 109 109 106 102 89 82 86 84 79 75 72 70 68 65 65 68 66 61 55 51 55 49 53 48 42 44 28 29 22 22 10 6 28 39 34 41 35 34 30 30 31 28 39 24 17
166 174 174 177 171 169 170 173 153 157 155 145 136 137 139 123 123 126 129 129 129 124 117 114 114 113 113 108 102 99 97 92 87 87 86 84 83 79 77 73 88 100 102 96 90 86 86 83 78 75 69 66 59 55 43 53 57 54 50 46 36 48 41 36 31 33 29 19 13 16 1 5 359 38 32 39 48 31 32 30 24 22 22 22 354
171 177 180 178 173 177 177 177 158 163 164 158 150 146 147 130 139 138 133 130 126 125 123 128 127 129 121 118 117 112 106 100 93 97 86 85 79 83 84 87 83 79 76 81 87 87 83 80 77 74 72 67 61 61 49 48 47 49 50 46 41 37 28 30 25 18 17 11 1 356 353 352 355 11 40 28 42 31 26 24 20 18 22 23 16
179 177 182 182 184 179 180 178 177 177 166 162 157 150 150 147 151 147 138 131 131 122 130 127 139 137 134 128 123 123 121 115 105 102 94 75 71 66 72 71 71 69 74 70 61 63 73 77 76 77 73 67 62 58 50 40 48 47 55 51 43 27 9 9 20 6 7 357 335 347 343 347 1 340 339 27 19 62 15 7 16 21 359 36 352
183 181 178 182 184 181 183 185 182 188 174 170 161 162 160 155 156 151 146 143 135 134 132 139 144 144 141 136 132 130 124 118 98 98 100 94 83 73 69 73 71 64 63 74 59 50 71 74 73 68 61 56 60 57 40 35 37 29 40 44 41 25 357 354 351 346 334 347 323 334 339 342 343 337 345 355 8 82 351 345 331 320 311 9 279
181 175 178 182 183 181 181 188 181 192 186 191 190 192 166 159 157 154 153 149 139 144 147 145 147 149 146 142 139 136 132 127 128 114 110 115 114 105 91 84 75 76 43 66 45 46 50 54 70 57 51 46 52 45 33 44 37 16 18 16 15 9 326 329 331 317 320 322 319 329 331 331 332 334 341 348 12 18 326 325 321 295 296 321 214
162 178 186 182 185 184 186 186 183 189 189 191 195 196 171 171 165 164 162 161 155 159 158 157 158 160 154 148 142 139 140 140 142 135 131 136 137 130 114 107 103 91 52 54 39 30 51 58 59 69 58 58 60 47 42 52 41 9 33 33 359 339 328 300 308 300 304 307 307 320 319 321 322 324 330 334 341 340 330 322 314 304 302 307 264
168 185 186 190 187 187 186 187 188 186 190 194 195 202 203 196 176 175 170 175 171 167 172 171 172 167 160 158 154 157 154 155 153 155 153 154 159 156 144 127 136 113 55 65 47 32 39 49 63 61 59 86 80 61 74 78 70 21 29 16 358 350 324 314 294 292 292 296 295 302 307 312 315 318 317 323 330 334 336 331 328 317 304 298 309
176 178 185 193 190 191 188 188 191 188 188 189 198 203 203 204 201 175 198 183 176 187 181 182 171 171 171 169 162 163 164 165 167 169 169 169 174 163 161 161 151 140 113 80 96 44 43 76 83 79 67 57 47 54 53 115 121 82 49 357 348 338 336 317 307 293 289 291 286 295 304 303 307 308 308 308 319 324 324 323 322 319 318 316 310
194 188 187 194 196 193 189 191 191 192 188 186 195 200 204 204 206 203 204 184 197 195 189 178 178 180 181 175 167 165 170 172 177 180 171 182 177 182 190 192 167 158 160 154 171 133 99 73 63 63 28 21 8 29 3 39 89 68 6 317 348 306 294 301 303 306 298 290 299 297 301 301 301 302 300 302 304 309 313 316 318 319 319 318 317
201 187 184 196 196 195 197 196 194 194 190 188 196 196 198 202 207 209 211 192 206 200 189 193 189 179 190 187 183 173 177 180 180 176 177 193 192 193 202 206 207 183 179 202 196 170 163 130 104 65 47 9 10 20 350 346 343 3 37 327 310 314 285 275 289 286 288 290 283 289 289 294 293 293 296 296 296 298 303 309 312 313 313 313 313
201 200 193 190 190 196 200 203 200 195 190 193 195 197 194 202 205 204 208 209 203 198 202 202 199 197 192 189 187 186 177 181 180 179 189 193 196 200 209 207 217 213 205 205 188 189 158 132 137 124 68 46 343 341 300 315 312 317 19 306 290 295 286 282 268 272 273 269 270 267 277 277 278 285 288 292 295 294 297 301 305 308 309 310 310
202 203 195 187 186 201 207 204 203 197 195 198 196 199 199 204 201 200 204 209 203 205 208 206 206 204 195 191 192 191 183 183 181 184 188 191 197 204 203 207 223 218 212 206 191 188 171 147 125 114 128 179 203 234 237 260 284 285 295 265 263 269 274 277 283 275 274 272 269 269 271 279 272 269 281 292 295 298 298 300 301 303 306 308 310
202 198 193 189 196 195 209 209 204 201 198 201 198 201 203 204 202 205 203 198 201 206 210 211 210 207 200 197 196 193 191 189 191 186 190 197 201 201 204 213 221 216 213 208 190 174 169 169 148 159 169 190 233 243 211 235 251 262 267 259 262 257 250 265 256 260 261 270 277 281 278 280 283 283 277 282 292 296 300 302 304 305 307 310 312
203 200 194 199 192 194 200 210 206 205 200 204 201 202 203 204 205 207 202 197 200 204 211 212 210 206 202 201 199 199 195 197 187 193 192 196 198 205 208 214 216 208 204 194 195 191 193 192 195 190 212 236 252 278 292 275 262 252 251 265 259 272 283 270 261 260 261 264 266 276 282 285 289 296 303 293 286 299 301 304 307 309 311 313 314
204 202 204 204 193 189 193 210 205 209 200 206 202 204 199 205 205 208 206 202 204 208 211 211 210 206 198 204 202 200 200 199 191 183 197 199 200 206 212 212 196 188 186 198 197 179 192 211 177 215 209 229 249 244 251 264 277 284 277 266 286 288 267 271 273 268 263 267 270 275 279 282 291 296 287 293 297 292 300 303 307 311 315 317 320
208 207 210 199 203 199 194 204 201 206 208 207 209 208 205 207 209 208 209 205 204 209 212 212 210 201 196 202 203 204 201 198 194 189 194 200 205 206 211 191 178 171 184 175 185 196 188 202 198 203 215 238 233 247 186 242 251 272 270 263 262 258 265 262 263 265 261 276 274 281 284 289 288 281 287 293 308 311 298 302 310 316 318 318 318
204 205 206 202 208 206 198 201 205 206 207 207 208 211 208 209 211 210 210 206 209 211 214 213 210 202 198 204 201 200 201 198 192 192 191 198 205 207 207 184 165 180 172 171 196 197 187 189 192 201 214 233 210 248 230 216 240 258 277 291 283 265 267 266 264 269 286 277 295 294 293 295 284 283 293 320 318 312 312 310 315 315 314 314 315
202 202 202 203 207 206 203 200 204 203 205 205 206 208 209 208 209 209 202 209 210 209 211 208 209 205 200 205 200 200 200 201 196 194 198 188 191 202 179 168 167 176 180 184 200 175 188 185 200 189 197 203 230 232 263 259 227 256 297 282 275 271 269 271 270 287 306 303 295 297 307 305 296 307 339 336 323 318 316 317 310 306 308 314 317
203 202 201 203 203 204 200 200 203 202 204 205 203 205 206 208 207 206 204 205 209 208 206 209 208 207 204 203 197 202 198 200 189 190 193 185 188 194 183 168 170 175 176 190 188 177 177 222 204 193 201 221 237 226 245 276 294 294 275 274 282 278 275 265 283 303 296 283 289 292 305 294 310 359 348 340 335 326 316 316 325 329 323 319 317
203 200 201 201 204 201 198 200 206 205 200 203 199 197 201 203 202 201 211 205 206 204 205 208 199 208 208 206 206 201 196 193 189 186 190 187 188 188 191 173 178 175 179 182 203 206 193 179 215 214 198 219 231 238 224 241 267 266 267 278 273 275 270 274 301 298 294 269 268 297 292 318 338 8 354 336 324 314 309 327 335 328 321 321 317
202 198 202 205 204 204 194 205 206 200 198 199 196 194 198 203 207 206 211 206 204 200 203 202 200 200 205 212 211 208 197 195 190 184 192 192 193 187 178 167 187 191 182 192 194 201 215 234 223 188 199 213 232 207 217 186 243 280 163 276 296 254 270 312 303 280 250 251 253 263 281 312 23 354 354 326 318 323 339 347 337 326 324 321 322
207 202 207 207 205 201 203 209 200 200 202 200 199 202 203 202 197 205 207 209 202 199 205 196 198 197 196 206 210 209 201 194 194 186 188 184 182 184 190 184 181 191 203 210 196 186 183 200 177 242 226 201 227 193 171 157 230 259 314 315 290 307 304 13 350 270 259 251 248 229 243 311 344 353 335 332 332 339 347 336 326 326 324 326 329
208 208 211 207 206 207 211 207 205 200 203 201 202 208 206 206 204 206 204 207 202 203 208 201 190 198 198 203 209 205 200 201 199 194 189 191 192 190 193 191 188 190 193 200 179 196 199 179 170 215 182 346 281 220 180 209 263 148 200 306 322 343 339 4 349 275 311 342 191 233 75 52 330 316 345 312 323 342 343 336 331 334 328 330 329
212 212 208 207 208 213 212 208 207 202 203 204 206 209 206 205 208 208 204 203 202 197 203 201 202 206 207 201 197 199 202 205 202 199 190 193 194 191 190 194 195 186 189 193 192 197 182 181 178 200 169 188 213 225 197 197 219 154 303 204 265 112 316 29 346 309 318 315 353 71 69 108 309 30 357 354 344 336 327 335 330 325 320 317 319
210 209 203 204 208 210 207 204 205 203 204 202 202 201 193 198 203 201 193 200 179 194 200 209 208 204 204 198 199 192 198 205 203 204 200 183 185 193 193 195 192 194 183 182 189 202 195 198 181 184 189 203 222 219 219 192 217 222 180 221 312 233 220 252 330 305 350 42 260 107 109 55 45 18 316 310 310 309 317 327 324 317 313 315 322
211 211 203 207 208 211 208 206 208 207 206 201 196 189 196 197 189 191 196 196 203 198 202 206 199 197 199 186 190 191 198 203 204 204 207 208 192 193 190 186 197 188 188 189 188 182 196 199 199 190 193 199 220 182 220 182 222 229 222 200 205 289 314 249 353 307 300 263 324 33 64 79 88 334 311 318 335 330 338 321 321 320 323 325 329
216 204 201 210 209 211 206 205 208 209 204 199 188 190 198 201 202 203 197 196 206 211 209 209 207 201 188 193 193 192 196 200 205 204 205 209 211 204 200 194 189 194 200 185 192 200 196 202 169 179 198 176 179 226 222 190 162 239 232 243 299 7 110 268 285 295 321 22 188 116 207 126 166 350 339 331 336 335 347 340 332 328 335 340 338
212 190 208 207 204 207 203 205 207 208 202 195 190 192 198 200 202 207 207 212 211 213 200 205 198 185 190 193 190 194 195 199 200 202 205 203 202 202 202 206 204 197 179 195 204 208 190 184 181 189 167 176 181 209 225 172 197 190 167 202 256 70 33 37 129 203 278 302 295 243 162 167 340 341 345 332 338 4 343 338 333 337 340 344 337
200 201 205 204 205 205 205 205 209 206 202 194 193 196 200 198 201 203 209 215 212 213 197 190 192 184 193 190 188 189 193 198 199 200 203 201 198 203 200 201 203 203 194 203 208 179 191 178 172 178 187 188 196 203 199 207 190 206 139 135 109 112 77 83 131 111 171 266 298 317 317 309 313 190 341 331 330 311 335 327 304 323 344 356 22
212 207 210 203 203 199 202 203 210 204 200 198 196 197 199 198 202 206 210 210 204 200 186 193 194 187 196 190 188 189 191 195 199 202 200 200 200 203 202 202 205 203 192 200 181 188 199 192 183 191 182 181 195 179 204 194 189 169 180 147 141 113 118 96 85 104 121 214 263 307 323 339 337 328 339 335 337 339 341 347 350 7 15 24 28
206 200 205 203 198 196 199 202 208 202 198 198 194 199 197 199 205 205 207 208 201 196 195 195 189 189 198 193 191 193 191 194 194 203 203 200 199 196 200 204 203 197 191 192 195 196 197 196 185 177 179 186 183 182 180 156 159 164 170 165 167 168 174 162 176 176 156 190 262 267 303 330 311 307 320 333 322 318 328 341 350 347 8 20 28